• Em Portugal
  • Lista de países
  • Para 7 dias
  • Temperatura da água
  • Mapas de satélite
  • Mapa do tempo
  • Widgets de tempo
  • user-avatar
    Iniciar Sessão

    Previsão horária em Dawei

    Hoje, 11 Dezembro, Segunda-feira

    Tempo Temperatura Precipitação Vento Pressão Humidade
    00:00 +25°C° 0 mm 1 m/s 758 mmHg 91%
    01:00 +25°C° 0 mm 1 m/s 757 mmHg 90%
    02:00 +25°C° 0,1 mm 1 m/s 757 mmHg 90%
    03:00 +25°C° 0,1 mm 1 m/s 757 mmHg 90%
    04:00 +25°C° 0,1 mm 1 m/s 757 mmHg 90%
    05:00 +24°C° 0 mm 1 m/s 757 mmHg 89%
    06:00 +24°C° 0 mm 1 m/s 757 mmHg 89%
    07:00 +25°C° 0 mm 1 m/s 757 mmHg 90%
    08:00 +28°C° 0 mm 1 m/s 757 mmHg 78%
    09:00 +31°C° 0 mm 1 m/s 757 mmHg 66%
    10:00 +34°C° 0 mm 1 m/s 757 mmHg 54%
    11:00 +34°C° 0 mm 1 m/s 757 mmHg 53%
    12:00 +36°C° 0 mm 2 m/s 757 mmHg 51%
    13:00 +37°C° 0 mm 2 m/s 756 mmHg 49%
    14:00 +35°C° 0,1 mm 2 m/s 756 mmHg 58%
    15:00 +33°C° 0,1 mm 3 m/s 755 mmHg 67%
    16:00 +31°C° 0,1 mm 3 m/s 755 mmHg 75%
    17:00 +30°C° 0,5 mm 3 m/s 755 mmHg 81%
    18:00 +28°C° 0,5 mm 2 m/s 756 mmHg 87%
    19:00 +27°C° 0,5 mm 2 m/s 756 mmHg 93%
    20:00 +27°C° 0,4 mm 2 m/s 756 mmHg 94%
    21:00 +27°C° 0,4 mm 2 m/s 757 mmHg 94%
    22:00 +26°C° 0,4 mm 2 m/s 757 mmHg 95%
    23:00 +26°C° 0,4 mm 2 m/s 757 mmHg 95%

    Amanhã, 12 Dezembro, Terça-feira

    Tempo Temperatura Precipitação Vento Pressão Humidade
    00:00 +26°C° 0,4 mm 2 m/s 757 mmHg 95%
    01:00 +26°C° 0,4 mm 1 m/s 757 mmHg 96%
    02:00 +26°C° 0,1 mm 1 m/s 757 mmHg 96%
    03:00 +26°C° 0,1 mm 1 m/s 757 mmHg 96%
    04:00 +25°C° 0,1 mm 1 m/s 756 mmHg 96%
    05:00 +25°C° 0 mm 1 m/s 757 mmHg 96%
    06:00 +25°C° 0 mm 1 m/s 757 mmHg 96%
    07:00 +25°C° 0 mm 1 m/s 757 mmHg 96%
    08:00 +28°C° 0 mm 1 m/s 757 mmHg 84%
    09:00 +31°C° 0 mm 1 m/s 758 mmHg 73%
    10:00 +33°C° 0 mm 1 m/s 758 mmHg 61%
    11:00 +34°C° 0 mm 1 m/s 757 mmHg 57%
    12:00 +36°C° 0 mm 2 m/s 757 mmHg 53%
    13:00 +37°C° 0 mm 2 m/s 756 mmHg 49%
    14:00 +36°C° 0,1 mm 2 m/s 755 mmHg 55%
    15:00 +35°C° 0,1 mm 3 m/s 755 mmHg 61%
    16:00 +34°C° 0,1 mm 3 m/s 754 mmHg 67%
    17:00 +31°C° 0,5 mm 3 m/s 754 mmHg 76%
    18:00 +29°C° 0,5 mm 2 m/s 755 mmHg 85%
    19:00 +27°C° 0,5 mm 2 m/s 755 mmHg 94%
    20:00 +27°C° 0,1 mm 2 m/s 756 mmHg 95%
    21:00 +27°C° 0,1 mm 2 m/s 756 mmHg 96%
    22:00 +27°C° 0,1 mm 1 m/s 757 mmHg 96%
    23:00 +26°C° 0,1 mm 1 m/s 756 mmHg 97%

    Depois de amanhã, 13 Dezembro, Quarta-feira

    Tempo Temperatura Precipitação Vento Pressão Humidade
    00:00 +26°C° 0,1 mm 1 m/s 756 mmHg 97%
    01:00 +26°C° 0,1 mm 1 m/s 756 mmHg 98%
    02:00 +26°C° 0 mm 1 m/s 756 mmHg 98%
    03:00 +26°C° 0 mm 1 m/s 756 mmHg 98%
    04:00 +25°C° 0 mm 1 m/s 755 mmHg 98%
    05:00 +25°C° 0 mm 1 m/s 756 mmHg 98%
    06:00 +25°C° 0 mm 1 m/s 756 mmHg 98%
    07:00 +25°C° 0 mm 1 m/s 756 mmHg 98%
    08:00 +28°C° 0 mm 1 m/s 757 mmHg 87%
    09:00 +30°C° 0 mm 1 m/s 757 mmHg 76%
    10:00 +32°C° 0 mm 1 m/s 758 mmHg 66%
    11:00 +34°C° 0 mm 1 m/s 757 mmHg 60%
    12:00 +35°C° 0 mm 1 m/s 756 mmHg 54%
    13:00 +37°C° 0 mm 2 m/s 756 mmHg 48%
    14:00 +36°C° 0 mm 2 m/s 755 mmHg 53%
    15:00 +35°C° 0 mm 2 m/s 754 mmHg 58%
    16:00 +34°C° 0 mm 2 m/s 754 mmHg 63%
    17:00 +31°C° 0,2 mm 2 m/s 754 mmHg 73%
    18:00 +29°C° 0,2 mm 2 m/s 755 mmHg 83%
    19:00 +27°C° 0,2 mm 2 m/s 755 mmHg 93%
    20:00 +27°C° 0,2 mm 2 m/s 756 mmHg 94%
    21:00 +27°C° 0,2 mm 1 m/s 756 mmHg 96%
    22:00 +26°C° 0,2 mm 1 m/s 757 mmHg 97%
    23:00 +26°C° 0 mm 1 m/s 757 mmHg 97%

    14 Dezembro, Quinta-feira

    Tempo Temperatura Precipitação Vento Pressão Humidade
    00:00 +26°C° 0 mm 1 m/s 756 mmHg 98%
    01:00 +26°C° 0 mm 1 m/s 756 mmHg 98%
    02:00 +26°C° 0 mm 1 m/s 756 mmHg 98%
    03:00 +26°C° 0 mm 1 m/s 755 mmHg 98%
    04:00 +26°C° 0 mm 1 m/s 755 mmHg 99%
    05:00 +26°C° 0 mm 1 m/s 755 mmHg 98%
    06:00 +26°C° 0 mm 1 m/s 756 mmHg 98%
    07:00 +25°C° 0 mm 1 m/s 756 mmHg 98%
    08:00 +28°C° 0 mm 1 m/s 757 mmHg 88%
    09:00 +30°C° 0 mm 1 m/s 757 mmHg 78%
    10:00 +31°C° 0 mm 0 m/s 758 mmHg 67%
    11:00 +33°C° 0,5 mm 1 m/s 757 mmHg 68%
    12:00 +33°C° 0,5 mm 1 m/s 756 mmHg 69%
    13:00 +34°C° 0,5 mm 2 m/s 756 mmHg 70%
    14:00 +32°C° 0,9 mm 2 m/s 755 mmHg 76%
    15:00 +31°C° 0,9 mm 2 m/s 755 mmHg 81%
    16:00 +30°C° 0,9 mm 2 m/s 754 mmHg 86%
    17:00 +29°C° 0,8 mm 2 m/s 755 mmHg 89%
    18:00 +28°C° 0,8 mm 2 m/s 755 mmHg 91%
    19:00 +27°C° 0,8 mm 1 m/s 756 mmHg 94%
    20:00 +27°C° 0,9 mm 1 m/s 756 mmHg 94%
    21:00 +26°C° 0,9 mm 1 m/s 757 mmHg 95%
    22:00 +26°C° 0,9 mm 1 m/s 757 mmHg 95%
    23:00 +26°C° 0,6 mm 1 m/s 757 mmHg 95%

    15 Dezembro, Sexta-feira

    Tempo Temperatura Precipitação Vento Pressão Humidade
    00:00 +26°C° 0,6 mm 1 m/s 757 mmHg 96%
    01:00 +26°C° 0,6 mm 1 m/s 757 mmHg 96%
    02:00 +25°C° 0,2 mm 1 m/s 756 mmHg 96%
    03:00 +25°C° 0,2 mm 1 m/s 756 mmHg 96%
    04:00 +25°C° 0,2 mm 1 m/s 755 mmHg 96%
    05:00 +25°C° 0,1 mm 1 m/s 756 mmHg 96%
    06:00 +25°C° 0,1 mm 1 m/s 756 mmHg 96%
    07:00 +25°C° 0,1 mm 1 m/s 756 mmHg 96%
    08:00 +28°C° 0,1 mm 1 m/s 757 mmHg 84%
    09:00 +30°C° 0,1 mm 1 m/s 757 mmHg 72%
    10:00 +33°C° 0,1 mm 1 m/s 757 mmHg 61%
    11:00 +33°C° 0,3 mm 1 m/s 757 mmHg 64%
    12:00 +33°C° 0,3 mm 1 m/s 756 mmHg 67%
    13:00 +34°C° 0,3 mm 2 m/s 755 mmHg 70%
    14:00 +32°C° 1,1 mm 2 m/s 755 mmHg 77%
    15:00 +32°C° 1,1 mm 2 m/s 754 mmHg 83%
    16:00 +31°C° 1,1 mm 2 m/s 754 mmHg 90%
    17:00 +30°C° 1,1 mm 2 m/s 755 mmHg 91%
    18:00 +28°C° 1,1 mm 1 m/s 755 mmHg 93%
    19:00 +27°C° 1,1 mm 1 m/s 756 mmHg 95%
    20:00 +26°C° 0,6 mm 1 m/s 756 mmHg 95%
    21:00 +26°C° 0,6 mm 1 m/s 757 mmHg 96%
    22:00 +26°C° 0,6 mm 1 m/s 757 mmHg 96%
    23:00 +26°C° 0,2 mm 1 m/s 757 mmHg 96%

    16 Dezembro, Sábado

    Tempo Temperatura Precipitação Vento Pressão Humidade
    00:00 +26°C° 0,2 mm 1 m/s 757 mmHg 96%
    01:00 +25°C° 0,2 mm 1 m/s 757 mmHg 96%
    02:00 +25°C° 0,1 mm 1 m/s 756 mmHg 96%
    03:00 +25°C° 0,1 mm 1 m/s 756 mmHg 96%
    04:00 +25°C° 0,1 mm 1 m/s 756 mmHg 96%
    05:00 +25°C° 0 mm 1 m/s 756 mmHg 96%
    06:00 +25°C° 0 mm 1 m/s 756 mmHg 95%
    07:00 +25°C° 0 mm 1 m/s 757 mmHg 95%
    08:00 +27°C° 0 mm 1 m/s 757 mmHg 83%
    09:00 +30°C° 0 mm 1 m/s 758 mmHg 71%
    10:00 +32°C° 0 mm 1 m/s 758 mmHg 58%
    11:00 +34°C° 0 mm 1 m/s 757 mmHg 54%
    12:00 +35°C° 0 mm 1 m/s 757 mmHg 50%
    13:00 +36°C° 0 mm 1 m/s 756 mmHg 46%
    14:00 +36°C° 0 mm 2 m/s 756 mmHg 50%
    15:00 +35°C° 0 mm 2 m/s 755 mmHg 55%
    16:00 +34°C° 0 mm 3 m/s 755 mmHg 59%
    17:00 +31°C° 0,2 mm 2 m/s 755 mmHg 70%
    18:00 +29°C° 0,2 mm 2 m/s 756 mmHg 81%
    19:00 +27°C° 0,2 mm 2 m/s 756 mmHg 92%
    20:00 +26°C° 0 mm 2 m/s 757 mmHg 93%
    21:00 +26°C° 0,1 mm 2 m/s 757 mmHg 94%
    22:00 +25°C° 0,1 mm 2 m/s 758 mmHg 94%
    23:00 +25°C° 0 mm 2 m/s 758 mmHg 94%
    Mostrar mais